Hourly Weather Roundup
Issued by NWS Central Illinois

Home | Current Version | Previous Version | Text Only | Print | Product List | Glossary On
Versions: 1 2 3 4 5 6 7 8 9 10 11 12 13 14 15 16 17 18 19 20 21 22 23 24 25 26 27 28 29 30 31 32 33 34 35 36 37 38 39 40 41 42 43 44 45 46 47 48 49 50
000
NZUS43 KILX 230810
HWRILX

Area Weather Roundup
National Weather Service Lincoln IL
300 AM CDT WED AUG 23 2017

NOTE:  "FAIR" indicates few or no clouds below 12,000 feet, with
       no sigificant weather and/or obstructions to visibility.


CITY           SKY/WX    TMP DP  RH WIND       PRES   REMARKS
Bloomington    CLEAR     58  53  84 W5        30.07S
Champaign      CLEAR     56  53  90 NW3       30.05S
Danville       PTCLDY    56  55  95 NW6       30.01S
Decatur        CLEAR     62  55  77 NW9       30.07R
Effingham      CLEAR     60  59  97 NW5       30.06S
Flora          CLEAR     63  59  87 NW5       30.04F
Galesburg      CLEAR     54  52  92 W5        30.10R
Jacksonville   CLEAR     55  53  94 W3        30.09S
Lacon          CLEAR     54  53  99 CALM      30.06R
Lawrenceville  CLEAR     62  59  90 NW5       30.03S
Litchfield     CLEAR     56  55  96 NW5       30.08S
$$


CITY           SKY/WX    TMP DP  RH WIND       PRES   REMARKS
Lincoln        CLEAR     60  56  87 CALM      30.07S
Macomb         PTCLDY    55  53  94 W6        30.11S
Mattoon        CLEAR     58  57  97 NW8       30.04S
Mt Carmel AP   CLEAR     61  58  90 NW6       30.03R
Olney-Noble AP CLEAR     58  56  93 CALM      30.04S
Paris AP       CLEAR     55  54  97 NW5       30.05R
Peoria         CLEAR     59  54  83 NW5       30.07S
Pontiac        CLEAR     55  54  98 CALM      30.06R
Rantoul        CLEAR     59  56  91 NW8       30.05S
Robinson       CLEAR     59  57  92 NW5       30.03F
Springfield    CLEAR     57  56  96 CALM      30.09R
Taylorville    CLEAR     56  55  95 CALM      30.07S
$$

...REGIONAL REPORTS...


CITY           SKY/WX    TMP DP  RH WIND       PRES   REMARKS
Chicago O`Hare CLEAR     63  50  62 NW10      30.01S
Kankakee       CLEAR     55  54  94 W7        30.04S
Moline         CLEAR     57  51  80 SW5       30.08S
Mount Sterling CLEAR     56  53  88 W6        30.10R
Mount Vernon     N/A     58  58 100 CALM      30.05S
Pittsfield     CLEAR     59  55  85 W3        30.12R
Quincy         CLEAR     57  53  86 NW7       30.11R
Rockford       CLEAR     57  51  80 W3        30.06R
$$


CITY           SKY/WX    TMP DP  RH WIND       PRES   REMARKS
Burlington     CLEAR     57  54  89 NW6       30.10S
Cedar Rapids   CLEAR     52  50  93 NW5       30.10R
Des Moines     CLEAR     58  55  90 CALM      30.14R
Kirksville     CLEAR     53  32  44 NW5       30.15S
Ottumwa        CLEAR     55  53  93 W8        30.13R
St Louis       CLEAR     63  57  81 N3        30.09S
$$


CITY           SKY/WX    TMP DP  RH WIND       PRES   REMARKS
Terre Haute    CLEAR     60  56  86 NW5       30.02S
Evansville     CLEAR     66  60  81 VRB5      30.02S
Indianapolis   MOCLDY    61  58  90 NW8       30.00S
Lafayette      CLEAR     57  57 100 CALM      30.01S
Madison        CLEAR     58  51  78 VRB3      30.02R
Milwaukee      CLEAR     62  51  67 W6        29.99S
$$






USA.gov is the U.S. government's official web portal to all federal, state and local government web resources and services.